GW0092 Weather Reports


time (UTC)temp
F
wind
direction
speed
knots
gust
knots
rain 1hr
in
rain 24hr
in
rain mn
in
humidity
%
barometer
mb
20260902101607 72 305 0.0 2.6 0.00 0.37 0.37 100 1017.6
20260902100101 72 9 0.0 1.7 0.00 0.37 0.37 100 1017.3
20260902094602 72 295 0.9 1.7 0.00 0.37 0.37 100 1017.0
20260902093057 72 340 0.0 1.7 0.00 0.37 0.37 100 1016.8
20260902091605 72 6 0.9 3.5 0.00 0.37 0.37 100 1016.8
20260902090128 72 0 0.0 0.9 0.00 0.37 0.37 100 1016.5
20260902084603 72 328 0.0 1.7 0.00 0.37 0.37 100 1016.2
20260902083115 72 0 0.0 0.9 0.00 0.37 0.37 99 1016.0
20260902081608 72 0 0.0 0.0 0.00 0.37 0.37 99 1015.9
20260902080111 72 0 0.0 0.0 0.03 0.37 0.37 99 1016.0
20260902074558 72 0 0.0 0.9 0.03 0.37 0.37 99 1016.1
20260902073100 72 0 0.0 1.7 0.03 0.37 0.37 99 1016.1
20260902071602 72 0 0.0 0.9 0.03 0.37 0.37 99 1016.3
20260902070106 72 261 0.0 2.6 0.04 0.34 0.34 99 1017.0
20260902064607 72 0 0.0 0.9 0.28 0.34 0.34 99 1016.6
20260902063102 73 0 0.0 0.9 0.34 0.34 0.34 98 1016.4
20260902061625 73 0 0.0 4.3 0.34 0.34 0.34 98 1016.8
20260902060104 73 157 0.0 4.3 0.30 0.30 0.30 97 1017.4
20260902054604 74 292 1.7 5.2 0.06 0.06 0.06 96 1018.5
20260902053058 75 321 1.7 3.5 0.00 0.00 0.00 94 1018.2
20260902051557 74 0 0.0 0.9 0.00 0.00 0.00 93 1017.5
20260902050107 74 0 0.0 0.9 0.00 0.00 0.00 93 1017.3
20260902044603 75 0 0.0 1.7 0.00 0.00 0.00 92 1017.2
20260902043118 76 0 0.0 4.3 0.00 0.00 0.00 91 1017.2
20260902041609 77 144 1.7 8.7 0.00 0.00 0.00 89 1017.3
20260902040107 79 286 0.0 2.6 0.00 0.00 0.00 88 1017.3
20260902034601 79 308 1.7 9.6 0.00 0.00 0.00 89 1017.0
20260902033114 78 277 4.3 10.4 0.00 0.00 0.00 94 1017.2
20260902031605 78 0 0.0 0.0 0.00 0.00 0.00 96 1015.7
20260902030118 78 0 0.0 0.0 0.00 0.00 0.00 96 1015.4
20260902024601 78 0 0.0 0.0 0.00 0.00 0.00 97 1015.4
20260902023115 78 0 0.0 0.0 0.00 0.00 0.00 97 1015.4
20260902021621 78 0 0.0 0.0 0.00 0.00 0.00 97 1015.3
20260902020104 78 0 0.0 0.0 0.00 0.00 0.00 97 1015.4
20260902014605 78 0 0.0 0.0 0.00 0.00 0.00 97 1014.9
20260902013056 78 0 0.0 0.0 0.00 0.00 0.00 97 1014.6
20260902011602 79 0 0.0 0.0 0.00 0.00 0.00 97 1014.9
20260902004559 79 0 0.0 0.0 0.00 0.00 0.00 97 1014.7
20260902003100 80 0 0.0 0.0 0.00 0.00 0.00 97 1014.2
20260902001604 80 0 0.0 0.0 0.00 0.00 0.00 97 1014.4
20260902000104 80 0 0.0 0.0 0.00 0.00 0.00 96 1014.4
20260901234614 81 0 0.0 0.0 0.00 0.01 0.00 96 1014.4
20260901233100 81 0 0.0 0.0 0.00 0.01 0.00 95 1014.4
20260901231606 82 0 0.0 0.0 0.00 0.01 0.00 94 1014.5
20260901230138 83 0 0.0 0.9 0.00 0.01 0.00 94 1014.5
20260901224601 83 0 0.0 0.0 0.00 0.05 0.00 93 1014.5
20260901223119 83 0 0.0 0.9 0.00 0.05 0.00 93 1014.8
20260901221603 84 129 0.0 0.9 0.00 0.05 0.00 91 1014.9
20260901220108 84 0 0.0 0.9 0.00 0.05 0.00 90 1014.9
20260901214602 85 164 0.9 2.6 0.00 0.11 0.00 88 1014.9
20260901213106 87 0 0.0 1.7 0.00 0.11 0.00 87 1014.9
20260901211603 87 134 0.9 1.7 0.00 0.11 0.00 85 1015.0
20260901210104 87 143 0.0 0.9 0.00 0.11 0.00 88 1015.0
20260901204605 86 0 0.0 1.7 0.00 0.23 0.00 89 1015.2
20260901203120 86 130 0.9 2.6 0.00 0.23 0.00 88 1015.3
20260901201612 85 0 0.9 2.6 0.00 0.23 0.00 90 1015.5
20260901200106 84 154 0.0 1.7 0.00 0.23 0.00 91 1015.6
20260901194605 85 133 0.0 2.6 0.00 0.23 0.00 89 1015.6
20260901193055 87 111 0.9 6.1 0.00 0.23 0.00 87 1015.7
20260901191603 87 118 0.0 2.6 0.00 0.23 0.00 86 1015.6
20260901190112 87 75 0.0 5.2 0.00 0.23 0.00 86 1015.8
20260901184602 87 131 0.9 4.3 0.00 0.23 0.00 87 1016.0
20260901183110 87 107 0.9 4.3 0.00 0.23 0.00 83 1016.0
20260901181604 88 152 0.0 3.5 0.00 0.23 0.00 80 1016.0
20260901180104 88 0 0.0 3.5 0.00 0.23 0.00 78 1015.9
20260901174607 88 0 0.9 5.2 0.00 0.23 0.00 78 1016.0
20260901173131 88 131 0.0 2.6 0.00 0.23 0.00 83 1016.1
20260901171621 87 34 0.0 4.3 0.00 0.23 0.00 78 1016.2
20260901170104 87 0 0.0 1.7 0.00 0.23 0.00 82 1016.4
20260901164633 87 133 0.0 3.5 0.00 0.23 0.00 87 1016.4
20260901163053 87 155 0.0 2.6 0.00 0.23 0.00 83 1016.5
20260901161607 88 174 1.7 3.5 0.00 0.23 0.00 77 1016.6
20260901160105 88 102 0.9 2.6 0.00 0.23 0.00 78 1016.7
20260901154600 87 8 1.7 4.3 0.00 0.23 0.00 76 1016.8
20260901153059 87 0 0.9 3.5 0.00 0.23 0.00 78 1017.1
20260901151555 87 143 0.0 2.6 0.00 0.23 0.00 81 1017.3
20260901144600 85 0 0.0 2.6 0.00 0.23 0.00 88 1017.4
20260901143100 84 347 0.9 4.3 0.00 0.23 0.00 86 1017.5
20260901141609 83 44 0.9 3.5 0.00 0.23 0.00 88 1017.6
20260901140056 82 292 0.9 3.5 0.00 0.23 0.00 91 1017.5
20260901134604 80 0 0.9 3.5 0.00 0.23 0.00 95 1017.4
20260901133104 79 339 1.7 3.5 0.00 0.23 0.00 97 1017.6
20260901131603 78 342 0.0 3.5 0.00 0.23 0.00 100 1017.6
20260901130106 77 359 0.9 2.6 0.00 0.23 0.00 100 1017.6
20260901124602 76 337 1.7 3.5 0.00 0.23 0.00 100 1017.7
20260901123101 76 316 0.0 4.3 0.00 0.23 0.00 100 1017.8
20260901121613 75 0 0.0 0.0 0.00 0.23 0.00 100 1017.7
20260901120124 76 333 0.0 2.6 0.00 0.23 0.00 100 1017.7
20260901114559 75 0 0.0 0.0 0.00 0.23 0.00 100 1017.6
20260901113103 74 0 0.0 0.0 0.00 0.23 0.00 100 1017.2
20260901111609 74 0 0.0 0.0 0.00 0.23 0.00 100 1017.2
20260901110057 74 0 0.0 0.0 0.00 0.23 0.00 100 1017.2
20260901104603 74 0 0.0 0.0 0.00 0.23 0.00 100 1017.3
20260901103124 74 0 0.0 0.0 0.00 0.23 0.00 100 1017.2